QPF
0.02 0.02 0.01 0.02 0.01 0.01 0.01 0.01 0.01 0.01 0.01 0.02 0.03 0.03 0.04 0.04 0.02 0.03 0.06 0.05 0.05 0.09 0.10 0.10 0.10 0.08 0.07 0.05 0.05 0.04 0.04 0.04 0.04 0.04 0.05 0.06 0.08 0.06 0.04 0.04 0.04 0.04 0.03
0.02 0.02 0.02 0.02 0.02 0.01 0.01 0.02 0.02 0.01 0.01 0.02 0.02 0.03 0.04 0.04 0.03 0.04 0.06 0.05 0.06 0.08 0.07 0.07 0.08 0.08 0.08 0.06 0.05 0.06 0.05 0.04 0.04 0.04 0.06 0.07 0.10 0.09 0.06 0.04 0.04 0.04 0.02
0.02 0.01 0.02 0.02 0.02 0.01 0.01 0.02 0.02 0.03 0.03 0.02 0.02 0.02 0.03 0.02 0.02 0.03 0.04 0.06 0.06 0.07 0.08 0.07 0.07 0.07 0.08 0.08 0.07 0.07 0.06 0.06 0.05 0.06 0.06 0.06 0.07 0.08 0.07 0.05 0.04 0.04 0.03
0.01 0.01 0.01 0.01 0.01 0.01 0.01 0.02 0.02 0.02 0.03 0.02 0.02 0.03 0.02 0.02 0.02 0.02 0.03 0.05 0.06 0.04 0.04 0.04 0.03 0.04 0.07 0.08 0.08 0.09 0.09 0.08 0.07 0.07 0.06 0.06 0.05 0.06 0.07 0.06 0.04 0.03 0.03
0.02 0.02 0.01 0.01 0.01 0.03 0.03 0.02 0.03 0.03 0.02 0.02 0.03 0.03 0.02 0.03 0.03 0.03 0.02 0.02 0.02 0.03 0.03 0.03 0.03 0.03 0.04 0.08 0.09 0.09 0.07 0.07 0.07 0.07 0.07 0.07 0.06 0.05 0.06 0.05 0.04 0.03 0.03
0.03 0.03 0.03 0.04 0.04 0.05 0.05 0.03 0.04 0.04 0.03 0.02 0.02 0.02 0.02 0.03 0.03 0.03 0.02 0.02 0.02 0.03 0.04 0.05 0.04 0.05 0.05 0.07 0.12 0.13 0.09 0.07 0.06 0.06 0.07 0.06 0.05 0.05 0.05 0.05 0.04 0.03 0.03
0.05 0.06 0.05 0.05 0.05 0.04 0.04 0.05 0.05 0.04 0.03 0.04 0.06 0.05 0.05 0.05 0.03 0.02 0.02 0.02 0.03 0.03 0.03 0.04 0.05 0.05 0.04 0.06 0.10 0.13 0.12 0.10 0.09 0.08 0.08 0.08 0.07 0.07 0.06 0.05 0.04 0.04 0.03
0.05 0.05 0.04 0.03 0.03 0.03 0.05 0.06 0.06 0.05 0.03 0.05 0.05 0.06 0.07 0.06 0.04 0.02 0.03 0.04 0.04 0.02 0.02 0.03 0.04 0.05 0.06 0.06 0.08 0.11 0.12 0.11 0.13 0.13 0.10 0.08 0.07 0.08 0.09 0.08 0.06 0.05 0.05
0.05 0.07 0.06 0.04 0.04 0.04 0.04 0.04 0.07 0.06 0.05 0.05 0.04 0.05 0.05 0.04 0.05 0.04 0.03 0.03 0.04 0.04 0.05 0.06 0.06 0.07 0.08 0.08 0.09 0.11 0.13 0.11 0.11 0.13 0.13 0.11 0.09 0.07 0.07 0.07 0.06 0.05 0.05
0.04 0.07 0.07 0.04 0.05 0.06 0.05 0.04 0.05 0.06 0.06 0.06 0.05 0.04 0.04 0.03 0.03 0.04 0.04 0.05 0.05 0.03 0.05 0.06 0.05 0.06 0.07 0.08 0.10 0.12 0.12 0.08 0.06 0.06 0.09 0.11 0.11 0.09 0.06 0.05 0.05 0.05 0.04
0.03 0.06 0.09 0.05 0.06 0.06 0.06 0.06 0.05 0.06 0.07 0.06 0.07 0.07 0.07 0.05 0.03 0.04 0.05 0.05 0.04 0.04 0.05 0.04 0.04 0.03 0.03 0.03 0.05 0.09 0.09 0.05 0.03 0.04 0.06 0.07 0.09 0.09 0.08 0.07 0.05 0.04 0.04
0.04 0.05 0.06 0.06 0.06 0.04 0.02 0.02 0.03 0.05 0.08 0.09 0.08 0.08 0.08 0.07 0.05 0.04 0.05 0.04 0.03 0.03 0.03 0.02 0.02 0.03 0.03 0.04 0.04 0.07 0.06 0.04 0.03 0.04 0.04 0.05 0.07 0.07 0.08 0.09 0.10 0.09 0.08
0.06 0.05 0.05 0.05 0.04 0.04 0.03 0.03 0.03 0.04 0.05 0.06 0.07 0.07 0.08 0.07 0.06 0.06 0.07 0.07 0.05 0.03 0.03 0.03 0.03 0.02 0.03 0.03 0.03 0.04 0.04 0.03 0.03 0.03 0.03 0.03 0.05 0.08 0.07 0.08 0.09 0.10 0.11
0.04 0.05 0.06 0.06 0.04 0.04 0.03 0.03 0.03 0.02 0.02 0.03 0.03 0.03 0.05 0.06 0.07 0.08 0.08 0.07 0.06 0.05 0.04 0.03 0.03 0.02 0.02 0.03 0.03 0.03 0.02 0.02 0.02 0.02 0.02 0.02 0.02 0.04 0.04 0.04 0.05 0.07 0.08
0.03 0.04 0.04 0.05 0.04 0.03 0.02 0.03 0.03 0.02 0.02 0.02 0.02 0.03 0.02 0.03 0.05 0.07 0.08 0.09 0.09 0.07 0.06 0.04 0.03 0.03 0.03 0.02 0.02 0.02 0.01 0.01 0.01 0.01 0.01 0.01 0.01 0.01 0.01 0.02 0.03 0.04 0.04
0.04 0.05 0.04 0.04 0.04 0.03 0.02 0.02 0.02 0.02 0.02 0.02 0.03 0.03 0.02 0.02 0.03 0.04 0.05 0.06 0.07 0.08 0.07 0.06 0.05 0.03 0.03 0.02 0.02 0.01 0.01 0.01 0.01 0.01 0.01 0.01 0.01 0.01 0.01 0.02 0.02 0.02 0.02
0.04 0.05 0.04 0.04 0.04 0.04 0.04 0.04 0.03 0.03 0.03 0.03 0.03 0.04 0.03 0.03 0.03 0.04 0.04 0.04 0.04 0.05 0.04 0.04 0.04 0.03 0.02 0.02 0.01 0.01 0.00 0.00 0.00 0.00 0.01 0.01 0.01 0.02 0.02 0.02 0.02 0.02 0.02
0.04 0.05 0.04 0.03 0.03 0.05 0.04 0.05 0.03 0.02 0.02 0.03 0.03 0.04 0.04 0.04 0.04 0.05 0.06 0.05 0.04 0.05 0.06 0.04 0.04 0.04 0.03 0.02 0.01 0.01 0.00 0.00 0.00 0.00 0.00 0.01 0.01 0.02 0.02 0.02 0.02 0.01 0.01
0.04 0.05 0.06 0.04 0.04 0.04 0.04 0.04 0.03 0.02 0.02 0.02 0.03 0.04 0.04 0.05 0.05 0.06 0.06 0.05 0.05 0.04 0.05 0.04 0.05 0.05 0.04 0.03 0.01 0.01 0.00 0.00 0.00 0.00 0.00 0.01 0.01 0.02 0.02 0.02 0.02 0.02 0.01
0.03 0.04 0.04 0.04 0.04 0.04 0.04 0.04 0.03 0.03 0.02 0.02 0.03 0.04 0.04 0.04 0.04 0.05 0.05 0.05 0.05 0.06 0.06 0.05 0.04 0.03 0.03 0.02 0.02 0.01 0.01 0.01 0.01 0.00 0.01 0.01 0.01 0.02 0.02 0.01 0.02 0.02 0.02
0.03 0.04 0.04 0.03 0.04 0.05 0.04 0.04 0.05 0.05 0.03 0.02 0.02 0.02 0.02 0.02 0.03 0.04 0.05 0.06 0.07 0.08 0.08 0.07 0.05 0.04 0.04 0.04 0.03 0.03 0.02 0.01 0.01 0.01 0.01 0.01 0.01 0.01 0.01 0.02 0.01 0.01 0.02
0.03 0.03 0.03 0.03 0.03 0.04 0.05 0.06 0.07 0.08 0.05 0.03 0.02 0.01 0.01 0.02 0.02 0.02 0.03 0.04 0.06 0.08 0.10 0.10 0.08 0.06 0.06 0.05 0.05 0.05 0.04 0.03 0.03 0.02 0.02 0.02 0.01 0.01 0.02 0.01 0.01 0.01 0.01
0.03 0.03 0.03 0.03 0.03 0.04 0.05 0.05 0.05 0.05 0.04 0.03 0.03 0.02 0.02 0.02 0.02 0.01 0.02 0.03 0.03 0.05 0.07 0.09 0.10 0.08 0.06 0.06 0.06 0.06 0.06 0.06 0.06 0.05 0.04 0.03 0.02 0.02 0.02 0.02 0.02 0.02 0.01
0.03 0.03 0.02 0.03 0.03 0.03 0.03 0.03 0.04 0.04 0.03 0.03 0.03 0.03 0.02 0.02 0.02 0.02 0.02 0.03 0.02 0.03 0.04 0.06 0.06 0.06 0.06 0.05 0.04 0.04 0.04 0.04 0.04 0.04 0.03 0.04 0.03 0.03 0.02 0.02 0.02 0.02 0.02
0.02 0.03 0.03 0.03 0.04 0.04 0.04 0.04 0.04 0.03 0.03 0.02 0.02 0.01 0.01 0.01 0.02 0.03 0.03 0.03 0.04 0.04 0.04 0.04 0.04 0.05 0.05 0.04 0.03 0.02 0.02 0.03 0.03 0.02 0.02 0.02 0.02 0.02 0.03 0.03 0.03 0.02 0.02
0.02 0.03 0.04 0.03 0.04 0.04 0.04 0.04 0.03 0.03 0.02 0.02 0.02 0.01 0.01 0.01 0.01 0.02 0.01 0.02 0.02 0.02 0.03 0.04 0.04 0.04 0.03 0.03 0.03 0.02 0.02 0.03 0.04 0.03 0.02 0.02 0.02 0.02 0.02 0.02 0.02 0.02 0.01
MSLP
1013.14 1013.15 1013.11 1013.04 1012.96 1012.89 1012.82 1012.79 1012.77 1012.78 1012.79 1012.81 1012.84 1012.87 1012.92 1012.97 1013.05 1013.16 1013.28 1013.41 1013.54 1013.66 1013.76 1013.84 1013.90 1013.94 1013.97 1013.98 1013.98 1013.98 1013.97 1013.97 1013.98 1014.00 1014.07 1014.16 1014.30 1014.47 1014.67 1014.88 1015.08 1015.29 1015.48
1013.28 1013.30 1013.28 1013.23 1013.16 1013.08 1013.01 1012.96 1012.93 1012.92 1012.94 1012.96 1012.99 1013.03 1013.07 1013.11 1013.16 1013.21 1013.26 1013.32 1013.39 1013.45 1013.53 1013.60 1013.67 1013.73 1013.78 1013.82 1013.83 1013.82 1013.79 1013.75 1013.72 1013.71 1013.74 1013.81 1013.94 1014.11 1014.31 1014.54 1014.78 1015.02 1015.26
1013.43 1013.48 1013.49 1013.48 1013.44 1013.38 1013.32 1013.26 1013.22 1013.20 1013.20 1013.22 1013.25 1013.29 1013.32 1013.33 1013.34 1013.33 1013.31 1013.29 1013.28 1013.28 1013.31 1013.36 1013.43 1013.51 1013.59 1013.64 1013.66 1013.64 1013.59 1013.52 1013.44 1013.38 1013.37 1013.40 1013.50 1013.67 1013.88 1014.13 1014.41 1014.70 1014.99
1013.59 1013.67 1013.74 1013.78 1013.79 1013.78 1013.74 1013.69 1013.64 1013.61 1013.59 1013.60 1013.63 1013.65 1013.67 1013.67 1013.63 1013.56 1013.47 1013.37 1013.27 1013.20 1013.17 1013.18 1013.23 1013.31 1013.39 1013.45 1013.47 1013.44 1013.36 1013.25 1013.12 1013.01 1012.94 1012.94 1013.02 1013.17 1013.39 1013.67 1013.98 1014.33 1014.68
1013.78 1013.90 1014.02 1014.13 1014.21 1014.25 1014.25 1014.21 1014.17 1014.12 1014.10 1014.09 1014.11 1014.13 1014.14 1014.12 1014.05 1013.93 1013.77 1013.59 1013.41 1013.25 1013.15 1013.10 1013.11 1013.16 1013.22 1013.26 1013.26 1013.21 1013.10 1012.94 1012.77 1012.61 1012.50 1012.45 1012.50 1012.64 1012.87 1013.17 1013.52 1013.91 1014.32
1013.99 1014.14 1014.32 1014.49 1014.64 1014.74 1014.78 1014.77 1014.73 1014.68 1014.65 1014.64 1014.66 1014.68 1014.70 1014.67 1014.59 1014.44 1014.23 1013.98 1013.72 1013.48 1013.28 1013.15 1013.09 1013.08 1013.10 1013.10 1013.07 1012.97 1012.82 1012.63 1012.41 1012.20 1012.05 1011.97 1012.00 1012.13 1012.35 1012.67 1013.05 1013.48 1013.93
1014.21 1014.37 1014.59 1014.83 1015.04 1015.19 1015.27 1015.30 1015.27 1015.23 1015.20 1015.20 1015.22 1015.27 1015.31 1015.31 1015.24 1015.08 1014.84 1014.54 1014.20 1013.87 1013.59 1013.36 1013.21 1013.11 1013.05 1012.99 1012.90 1012.76 1012.56 1012.32 1012.07 1011.83 1011.64 1011.54 1011.55 1011.67 1011.89 1012.21 1012.60 1013.05 1013.53
1014.42 1014.59 1014.84 1015.11 1015.37 1015.57 1015.69 1015.74 1015.73 1015.71 1015.69 1015.71 1015.77 1015.85 1015.93 1015.97 1015.93 1015.79 1015.55 1015.21 1014.82 1014.42 1014.03 1013.71 1013.45 1013.25 1013.09 1012.95 1012.79 1012.59 1012.35 1012.07 1011.79 1011.53 1011.32 1011.21 1011.20 1011.30 1011.52 1011.83 1012.21 1012.66 1013.14
1014.61 1014.78 1015.04 1015.34 1015.62 1015.85 1016.00 1016.07 1016.09 1016.08 1016.10 1016.15 1016.25 1016.38 1016.52 1016.61 1016.63 1016.52 1016.29 1015.95 1015.52 1015.05 1014.59 1014.16 1013.79 1013.49 1013.23 1013.00 1012.76 1012.50 1012.21 1011.90 1011.60 1011.33 1011.12 1011.00 1010.98 1011.07 1011.27 1011.56 1011.92 1012.33 1012.79
1014.77 1014.94 1015.20 1015.51 1015.81 1016.05 1016.22 1016.32 1016.35 1016.37 1016.41 1016.50 1016.65 1016.84 1017.03 1017.18 1017.25 1017.19 1016.99 1016.65 1016.21 1015.70 1015.17 1014.67 1014.21 1013.81 1013.46 1013.13 1012.82 1012.50 1012.17 1011.84 1011.52 1011.24 1011.03 1010.91 1010.89 1010.97 1011.15 1011.40 1011.72 1012.09 1012.50
1014.90 1015.08 1015.34 1015.65 1015.96 1016.21 1016.39 1016.50 1016.55 1016.59 1016.66 1016.78 1016.96 1017.19 1017.44 1017.64 1017.75 1017.74 1017.57 1017.25 1016.81 1016.29 1015.73 1015.18 1014.66 1014.18 1013.75 1013.35 1012.97 1012.59 1012.22 1011.86 1011.54 1011.26 1011.06 1010.95 1010.93 1011.00 1011.15 1011.36 1011.63 1011.94 1012.28
1015.00 1015.20 1015.47 1015.79 1016.09 1016.35 1016.54 1016.65 1016.72 1016.77 1016.86 1017.00 1017.20 1017.46 1017.73 1017.96 1018.11 1018.12 1017.99 1017.70 1017.29 1016.78 1016.23 1015.66 1015.10 1014.58 1014.09 1013.64 1013.20 1012.77 1012.36 1011.98 1011.64 1011.37 1011.17 1011.07 1011.04 1011.10 1011.23 1011.41 1011.62 1011.86 1012.13
1015.06 1015.30 1015.60 1015.92 1016.23 1016.49 1016.68 1016.80 1016.88 1016.94 1017.03 1017.18 1017.39 1017.64 1017.91 1018.15 1018.31 1018.34 1018.24 1017.99 1017.62 1017.15 1016.63 1016.08 1015.53 1015.00 1014.48 1013.98 1013.50 1013.03 1012.58 1012.17 1011.81 1011.53 1011.33 1011.23 1011.20 1011.26 1011.36 1011.50 1011.66 1011.84 1012.04
1015.09 1015.37 1015.70 1016.04 1016.36 1016.63 1016.82 1016.95 1017.03 1017.10 1017.20 1017.34 1017.53 1017.76 1018.01 1018.23 1018.38 1018.43 1018.35 1018.15 1017.83 1017.43 1016.96 1016.47 1015.95 1015.43 1014.92 1014.39 1013.87 1013.36 1012.86 1012.41 1012.02 1011.72 1011.51 1011.40 1011.37 1011.41 1011.50 1011.61 1011.73 1011.86 1011.99
1015.06 1015.39 1015.76 1016.13 1016.46 1016.74 1016.94 1017.08 1017.17 1017.25 1017.35 1017.48 1017.65 1017.85 1018.06 1018.25 1018.39 1018.43 1018.37 1018.21 1017.96 1017.64 1017.26 1016.84 1016.38 1015.91 1015.40 1014.87 1014.31 1013.75 1013.21 1012.70 1012.27 1011.93 1011.70 1011.57 1011.53 1011.56 1011.63 1011.72 1011.80 1011.88 1011.96
1014.97 1015.35 1015.75 1016.14 1016.49 1016.78 1017.00 1017.16 1017.28 1017.38 1017.48 1017.60 1017.75 1017.93 1018.11 1018.26 1018.37 1018.41 1018.38 1018.26 1018.08 1017.84 1017.56 1017.23 1016.85 1016.42 1015.94 1015.41 1014.83 1014.22 1013.62 1013.05 1012.56 1012.17 1011.90 1011.74 1011.68 1011.69 1011.74 1011.81 1011.87 1011.90 1011.93
1014.80 1015.21 1015.63 1016.04 1016.41 1016.72 1016.98 1017.17 1017.32 1017.45 1017.58 1017.71 1017.86 1018.02 1018.17 1018.30 1018.39 1018.43 1018.41 1018.35 1018.23 1018.08 1017.89 1017.65 1017.36 1016.99 1016.54 1016.02 1015.42 1014.77 1014.11 1013.48 1012.92 1012.47 1012.14 1011.94 1011.84 1011.83 1011.85 1011.89 1011.91 1011.91 1011.90
1014.56 1014.98 1015.42 1015.84 1016.22 1016.56 1016.85 1017.09 1017.30 1017.48 1017.65 1017.81 1017.98 1018.14 1018.28 1018.39 1018.47 1018.51 1018.51 1018.49 1018.44 1018.36 1018.26 1018.11 1017.89 1017.58 1017.18 1016.66 1016.05 1015.37 1014.67 1013.98 1013.36 1012.85 1012.46 1012.20 1012.06 1011.99 1011.98 1011.97 1011.95 1011.90 1011.84
1014.24 1014.67 1015.10 1015.53 1015.93 1016.30 1016.64 1016.94 1017.20 1017.45 1017.68 1017.90 1018.10 1018.28 1018.43 1018.54 1018.61 1018.66 1018.68 1018.69 1018.68 1018.67 1018.64 1018.56 1018.41 1018.16 1017.80 1017.31 1016.71 1016.02 1015.29 1014.56 1013.90 1013.33 1012.88 1012.56 1012.35 1012.23 1012.15 1012.08 1012.00 1011.89 1011.77
1013.87 1014.29 1014.72 1015.15 1015.58 1015.98 1016.36 1016.73 1017.07 1017.39 1017.70 1017.98 1018.23 1018.44 1018.61 1018.73 1018.81 1018.85 1018.88 1018.91 1018.93 1018.96 1018.98 1018.96 1018.87 1018.68 1018.37 1017.92 1017.35 1016.68 1015.95 1015.22 1014.53 1013.92 1013.42 1013.04 1012.76 1012.56 1012.40 1012.25 1012.09 1011.90 1011.71
1013.46 1013.87 1014.31 1014.75 1015.19 1015.63 1016.07 1016.49 1016.91 1017.32 1017.70 1018.05 1018.35 1018.60 1018.80 1018.93 1019.01 1019.06 1019.08 1019.11 1019.15 1019.20 1019.24 1019.26 1019.22 1019.08 1018.83 1018.45 1017.93 1017.31 1016.62 1015.91 1015.22 1014.60 1014.07 1013.63 1013.28 1012.99 1012.74 1012.49 1012.23 1011.96 1011.67
1013.03 1013.45 1013.88 1014.34 1014.81 1015.30 1015.78 1016.27 1016.76 1017.24 1017.69 1018.10 1018.46 1018.75 1018.97 1019.12 1019.20 1019.24 1019.26 1019.27 1019.30 1019.35 1019.40 1019.44 1019.44 1019.35 1019.16 1018.85 1018.41 1017.87 1017.25 1016.60 1015.95 1015.34 1014.80 1014.32 1013.91 1013.54 1013.19 1012.84 1012.47 1012.09 1011.71
1012.59 1013.02 1013.48 1013.97 1014.47 1015.00 1015.53 1016.08 1016.63 1017.17 1017.68 1018.14 1018.55 1018.88 1019.12 1019.27 1019.36 1019.38 1019.38 1019.38 1019.38 1019.41 1019.46 1019.50 1019.52 1019.48 1019.35 1019.12 1018.78 1018.34 1017.82 1017.25 1016.67 1016.10 1015.57 1015.07 1014.61 1014.17 1013.73 1013.28 1012.82 1012.34 1011.86
1012.14 1012.60 1013.10 1013.62 1014.17 1014.74 1015.32 1015.91 1016.51 1017.10 1017.65 1018.16 1018.60 1018.96 1019.22 1019.39 1019.48 1019.50 1019.48 1019.45 1019.43 1019.43 1019.45 1019.49 1019.52 1019.51 1019.43 1019.28 1019.04 1018.70 1018.29 1017.83 1017.34 1016.83 1016.33 1015.84 1015.36 1014.86 1014.36 1013.83 1013.28 1012.72 1012.17
1011.69 1012.19 1012.73 1013.30 1013.89 1014.50 1015.13 1015.76 1016.39 1017.02 1017.61 1018.15 1018.62 1019.01 1019.29 1019.48 1019.58 1019.60 1019.57 1019.53 1019.48 1019.46 1019.45 1019.47 1019.49 1019.50 1019.46 1019.37 1019.21 1018.97 1018.67 1018.32 1017.92 1017.49 1017.05 1016.58 1016.10 1015.59 1015.05 1014.47 1013.87 1013.25 1012.64
1011.23 1011.78 1012.36 1012.98 1013.62 1014.27 1014.93 1015.59 1016.25 1016.90 1017.52 1018.09 1018.59 1019.01 1019.33 1019.55 1019.68 1019.72 1019.70 1019.65 1019.60 1019.55 1019.52 1019.51 1019.51 1019.52 1019.50 1019.44 1019.34 1019.19 1018.98 1018.71 1018.41 1018.06 1017.68 1017.26 1016.80 1016.30 1015.76 1015.17 1014.55 1013.90 1013.26
Thickness
5751 5750 5749 5748 5747 5746 5745 5744 5744 5744 5743 5743 5742 5742 5741 5741 5740 5740 5739 5739 5738 5737 5735 5733 5731 5730 5729 5728 5727 5727 5726 5724 5723 5723 5722 5721 5720 5718 5717 5716 5715 5713 5712
5751 5749 5748 5746 5745 5745 5744 5743 5743 5742 5742 5741 5740 5740 5739 5739 5739 5738 5738 5738 5737 5736 5734 5733 5731 5730 5728 5727 5726 5726 5725 5724 5723 5723 5721 5720 5718 5717 5715 5714 5713 5712 5710
5751 5748 5747 5745 5744 5744 5743 5743 5742 5741 5740 5740 5738 5738 5738 5737 5737 5737 5737 5736 5735 5734 5733 5732 5731 5729 5727 5727 5726 5725 5724 5723 5723 5722 5720 5719 5717 5715 5714 5713 5711 5710 5709
5750 5747 5745 5744 5744 5743 5742 5741 5740 5738 5737 5736 5736 5736 5736 5735 5735 5735 5735 5734 5733 5733 5732 5731 5730 5728 5727 5726 5725 5724 5723 5722 5721 5720 5719 5717 5715 5714 5712 5711 5709 5708 5707
5748 5746 5744 5743 5742 5741 5740 5740 5738 5736 5734 5733 5734 5734 5733 5733 5733 5733 5733 5732 5732 5731 5730 5730 5729 5728 5727 5725 5724 5722 5721 5720 5719 5718 5717 5715 5713 5712 5710 5708 5707 5706 5705
5746 5744 5742 5741 5740 5738 5737 5737 5735 5735 5733 5732 5732 5731 5731 5731 5731 5731 5731 5731 5730 5730 5729 5728 5727 5726 5725 5724 5723 5722 5721 5720 5718 5717 5716 5714 5712 5710 5708 5706 5705 5703 5702
5744 5742 5740 5738 5737 5736 5735 5734 5733 5731 5729 5729 5726 5723 5725 5728 5728 5728 5729 5728 5728 5728 5727 5726 5725 5723 5722 5721 5721 5720 5719 5718 5716 5715 5713 5711 5710 5708 5706 5704 5703 5701 5700
5741 5739 5737 5735 5735 5733 5732 5731 5730 5727 5726 5726 5721 5716 5712 5715 5721 5725 5725 5724 5725 5725 5724 5724 5722 5721 5720 5719 5719 5717 5717 5715 5714 5713 5711 5709 5708 5706 5704 5703 5701 5699 5698
5738 5737 5735 5734 5733 5731 5729 5729 5728 5725 5721 5722 5721 5716 5708 5705 5710 5716 5719 5720 5721 5720 5721 5720 5719 5719 5717 5716 5716 5715 5714 5712 5711 5710 5709 5707 5706 5704 5703 5701 5699 5697 5696
5735 5734 5732 5731 5730 5729 5727 5727 5726 5724 5721 5717 5717 5717 5715 5712 5706 5705 5710 5714 5716 5716 5716 5717 5716 5715 5715 5714 5713 5712 5711 5709 5708 5707 5706 5704 5703 5702 5700 5698 5697 5695 5694
5731 5730 5729 5728 5726 5725 5724 5724 5723 5721 5719 5716 5714 5713 5712 5710 5708 5702 5700 5704 5708 5711 5712 5713 5712 5712 5711 5711 5710 5709 5707 5705 5704 5703 5702 5701 5699 5698 5697 5695 5694 5693 5691
5726 5726 5726 5724 5723 5722 5721 5720 5719 5718 5716 5714 5712 5710 5708 5705 5703 5701 5697 5697 5699 5703 5707 5709 5708 5708 5707 5707 5706 5705 5704 5702 5701 5699 5698 5697 5695 5694 5693 5692 5691 5690 5689
5720 5720 5721 5720 5719 5718 5717 5716 5714 5713 5712 5710 5709 5707 5707 5705 5704 5701 5697 5694 5694 5696 5700 5703 5704 5704 5704 5703 5702 5702 5700 5699 5697 5696 5694 5692 5691 5690 5689 5688 5688 5687 5685
5717 5717 5717 5716 5715 5714 5714 5712 5710 5709 5708 5706 5706 5705 5703 5703 5702 5700 5697 5692 5688 5688 5691 5694 5699 5700 5699 5699 5698 5697 5696 5695 5694 5692 5690 5689 5688 5687 5686 5684 5684 5683 5682
5715 5714 5713 5712 5711 5710 5709 5707 5705 5704 5703 5702 5701 5701 5700 5699 5698 5697 5696 5693 5687 5681 5682 5687 5690 5695 5695 5694 5694 5693 5691 5690 5689 5688 5687 5685 5684 5683 5681 5681 5679 5678 5677
5711 5710 5709 5708 5707 5706 5704 5702 5701 5700 5698 5698 5697 5695 5695 5694 5693 5692 5691 5689 5687 5683 5679 5683 5685 5688 5689 5689 5688 5688 5687 5686 5685 5684 5683 5681 5680 5678 5677 5676 5675 5674 5673
5708 5706 5705 5704 5702 5701 5700 5697 5696 5695 5693 5692 5692 5690 5689 5689 5688 5687 5685 5684 5682 5680 5676 5678 5680 5681 5682 5682 5682 5682 5682 5681 5680 5679 5678 5677 5676 5674 5673 5672 5670 5669 5668
5704 5703 5701 5699 5698 5696 5695 5693 5691 5690 5688 5687 5686 5685 5684 5684 5683 5682 5680 5678 5677 5676 5673 5671 5673 5674 5675 5676 5676 5675 5675 5676 5675 5675 5674 5672 5671 5670 5669 5667 5666 5664 5663
5699 5698 5697 5695 5693 5692 5690 5688 5687 5686 5684 5683 5682 5681 5680 5679 5677 5676 5675 5673 5672 5672 5669 5667 5666 5667 5667 5668 5668 5668 5668 5668 5669 5669 5668 5667 5666 5665 5664 5663 5661 5660 5659
5693 5692 5691 5690 5689 5687 5685 5684 5682 5681 5680 5679 5678 5678 5677 5675 5673 5672 5671 5669 5668 5665 5663 5661 5659 5659 5660 5661 5660 5658 5658 5659 5660 5662 5661 5661 5660 5659 5659 5658 5656 5655 5654
5687 5686 5684 5683 5683 5681 5680 5678 5676 5675 5674 5673 5673 5672 5672 5671 5670 5668 5667 5664 5662 5659 5657 5654 5653 5652 5651 5651 5650 5650 5650 5650 5652 5653 5653 5654 5654 5653 5653 5652 5651 5650 5649
5680 5679 5677 5676 5675 5675 5675 5673 5671 5669 5668 5667 5666 5666 5666 5665 5665 5664 5662 5661 5659 5655 5651 5649 5647 5646 5646 5646 5645 5644 5642 5640 5641 5645 5644 5645 5646 5646 5646 5646 5646 5645 5644
5672 5671 5670 5669 5668 5668 5668 5667 5666 5663 5662 5661 5660 5659 5660 5660 5658 5657 5656 5655 5653 5652 5650 5646 5643 5643 5642 5642 5640 5638 5637 5635 5635 5638 5637 5637 5638 5638 5639 5640 5640 5640 5639
5665 5665 5664 5663 5662 5662 5661 5660 5659 5657 5655 5655 5655 5654 5653 5652 5652 5651 5649 5647 5646 5645 5644 5642 5641 5641 5640 5639 5636 5635 5633 5631 5631 5631 5631 5628 5630 5631 5633 5633 5633 5633 5633
5657 5658 5658 5657 5655 5655 5655 5654 5652 5650 5648 5648 5649 5649 5647 5646 5646 5645 5642 5640 5638 5638 5639 5638 5637 5636 5636 5634 5632 5628 5625 5623 5621 5622 5623 5622 5622 5622 5624 5625 5626 5626 5625
5651 5651 5650 5650 5649 5648 5648 5647 5646 5643 5641 5641 5641 5642 5642 5641 5640 5638 5635 5633 5631 5632 5632 5631 5631 5630 5629 5628 5627 5625 5622 5617 5615 5614 5617 5615 5614 5613 5613 5616 5617 5617 5617